TimeCDT,TemperatureF,Dew PointF,Humidity,Sea Level PressureIn,VisibilityMPH,Wind Direction,Wind SpeedMPH,Gust SpeedMPH,PrecipitationIn,Events,Conditions,WindDirDegrees,DateUTC
12:58 AM,76.1,74.3,94,30.07,10.0,SE,4.6,-,N/A,,Clear,140,2013-06-21 05:58:00
1:58 AM,75.6,75.0,98,30.07,10.0,SE,4.6,-,N/A,,Clear,140,2013-06-21 06:58:00
2:58 AM,75.2,74.8,99,30.06,10.0,ESE,2.3,-,N/A,,Clear,120,2013-06-21 07:58:00
3:58 AM,73.9,73.9,100,30.06,10.0,SE,4.6,-,N/A,,Clear,130,2013-06-21 08:58:00
4:58 AM,73.2,73.2,100,30.06,10.0,SE,4.6,-,N/A,,Clear,140,2013-06-21 09:58:00
5:58 AM,72.3,72.3,100,30.09,8.0,SE,2.3,-,N/A,,Clear,140,2013-06-21 10:58:00
6:21 AM,71.6,71.6,100,30.08,10.0,SSE,3.5,-,N/A,,Clear,150,2013-06-21 11:21:00
6:30 AM,71.6,71.6,100,30.08,9.0,SE,4.6,-,N/A,,Clear,140,2013-06-21 11:30:00
6:37 AM,71.6,71.6,100,30.08,10.0,SE,3.5,-,N/A,,Clear,130,2013-06-21 11:37:00
6:58 AM,73.4,73.4,100,30.09,10.0,SSE,4.6,-,N/A,,Clear,150,2013-06-21 11:58:00
7:13 AM,73.4,73.4,100,30.09,10.0,SE,3.5,-,N/A,,Clear,130,2013-06-21 12:13:00
7:58 AM,77.2,75.9,96,30.11,10.0,South,2.3,-,N/A,,Clear,190,2013-06-21 12:58:00
8:58 AM,81.5,74.1,78,30.12,10.0,SW,5.8,-,N/A,,Clear,220,2013-06-21 13:58:00
9:58 AM,84.6,71.8,65,30.12,10.0,WSW,8.1,-,N/A,,Clear,250,2013-06-21 14:58:00
10:58 AM,86.9,71.8,61,30.13,10.0,West,3.5,-,N/A,,Clear,270,2013-06-21 15:58:00
11:58 AM,88.2,70.2,55,30.13,10.0,NNE,1.2,-,N/A,,Clear,30,2013-06-21 16:58:00
12:58 PM,90.0,68.9,50,30.13,10.0,ESE,5.8,-,N/A,,Clear,120,2013-06-21 17:58:00
1:58 PM,90.0,72.1,56,30.11,10.0,SE,5.8,-,N/A,,Partly Cloudy,140,2013-06-21 18:58:00
2:58 PM,91.6,71.6,52,30.09,10.0,South,8.1,-,N/A,,Clear,190,2013-06-21 19:58:00
3:58 PM,91.4,70.9,51,30.08,10.0,South,11.5,-,N/A,,Scattered Clouds,190,2013-06-21 20:58:00
4:58 PM,92.1,72.9,53,30.06,10.0,SSE,9.2,-,N/A,,Scattered Clouds,160,2013-06-21 21:58:00
5:58 PM,91.6,68.5,47,30.04,10.0,South,6.9,-,N/A,,Clear,190,2013-06-21 22:58:00
6:58 PM,88.5,71.8,57,30.04,10.0,SSE,4.6,-,N/A,,Clear,160,2013-06-21 23:58:00
7:58 PM,88.2,69.4,54,30.04,10.0,South,5.8,-,N/A,,Clear,190,2013-06-22 00:58:00
8:58 PM,81.5,74.1,78,30.04,10.0,ESE,5.8,-,N/A,,Clear,110,2013-06-22 01:58:00
9:58 PM,81.0,73.4,78,30.05,10.0,SSE,8.1,-,N/A,,Scattered Clouds,150,2013-06-22 02:58:00
10:58 PM,77.9,72.1,82,30.05,10.0,SSE,5.8,-,N/A,,Clear,150,2013-06-22 03:58:00
11:58 PM,75.7,71.8,87,30.05,10.0,SE,5.8,-,N/A,,Clear,140,2013-06-22 04:58:00